Weather History for K8A0 - March, 2013

Change the Weather History Date:

Wednesday, March 6, 2013

  Actual Average (KGAD) Record (KGAD)
Temperature  
Mean Temperature 36 °F -  
Max Temperature 41 °F 59 °F 83 °F (1945)
Min Temperature 32 °F 36 °F 19 °F (2015)
Degree Days  
Heating Degree Days 28    
Moisture  
Dew Point 25 °F    
Average Humidity 66    
Maximum Humidity 81    
Minimum Humidity 56    
Precipitation  
Precipitation 0.00 in - - ()
Sea Level Pressure  
Sea Level Pressure 30.15 in    
Wind  
Wind Speed 15 mph (NNW)    
Max Wind Speed 25 mph    
Max Gust Speed 39 mph    
Visibility 10 miles    
Events      
Averages and records for this station are not official NWS values.
T = Trace of Precipitation, MM = Missing Value Source: NWS Daily Summary

Daily Weather History Graph

Daily Weather History Graph

Search for Another Location

Airport or City:

Trip Planner

Search our weather history database for the weather conditions in past years. The results will help you decide how hot, cold, wet, or windy it might be!

Date:

Astronomy

Mar. 06, 2013 Rise Set
Actual Time 6:07 AM CST 5:45 PM CST
Civil Twilight 5:42 AM CST 6:10 PM CST
Nautical Twilight 5:13 AM CST 6:39 PM CST
Astronomical Twilight 4:44 AM CST 7:08 PM CST
Moon 2:04 AM CST (3/6) 12:37 PM CST (3/6)
Length of Visible Light 12h 28m
Length of Day
11h 38m
Waning Crescent, 29% of the Moon is Illuminated
Mar 6
Waning Crescent
Mar 11
New
Mar 19
First Quarter
Mar 27
Full
Apr 2
Last Quarter

Hourly Weather History & Observations

Time (CST) Temp. Windchill Dew Point Humidity Pressure Visibility Wind Dir Wind Speed Gust Speed Precip Events Conditions
12:15 AM 33.8 °F 22.8 °F 28.4 °F 81% 30.01 in 10.0 mi NW 18.4 mph 34.5 mph N/A   Overcast
12:35 AM 33.8 °F 21.9 °F 23.0 °F 65% 30.02 in 10.0 mi NW 21.9 mph 39.1 mph N/A   Overcast
12:55 AM 33.8 °F 23.2 °F 19.4 °F 56% 30.02 in 10.0 mi NW 17.3 mph 26.5 mph N/A   Overcast
1:15 AM 33.8 °F 24.3 °F 19.4 °F 56% 30.02 in 10.0 mi WNW 13.8 mph 27.6 mph N/A   Scattered Clouds
1:35 AM 32.0 °F 21.2 °F 19.4 °F 60% 30.02 in 10.0 mi NW 16.1 mph 24.2 mph N/A   Clear
1:55 AM 32.0 °F 20.5 °F 19.4 °F 60% 30.02 in 10.0 mi NW 18.4 mph 27.6 mph N/A   Clear
2:15 AM 32.0 °F 20.8 °F 19.4 °F 60% 30.02 in 10.0 mi NW 17.3 mph 24.2 mph N/A   Clear
2:35 AM 32.0 °F 19.2 °F 19.4 °F 60% 30.02 in 10.0 mi NW 23.0 mph 31.1 mph N/A   Clear
2:55 AM 32.0 °F 20.5 °F 19.4 °F 60% 30.02 in 10.0 mi NW 18.4 mph 29.9 mph N/A   Clear
3:15 AM 32.0 °F 20.8 °F 19.4 °F 60% 30.02 in 10.0 mi WNW 17.3 mph 26.5 mph N/A   Clear
3:55 AM 32.0 °F 20.5 °F 21.2 °F 64% 30.04 in 10.0 mi WNW 18.4 mph 27.6 mph N/A   Overcast
4:15 AM 33.8 °F 22.8 °F 21.2 °F 60% 30.03 in 10.0 mi WNW 18.4 mph 27.6 mph N/A   Overcast
4:35 AM 33.8 °F 22.5 °F 21.2 °F 60% 30.04 in 10.0 mi NW 19.6 mph 29.9 mph N/A   Overcast
4:55 AM 32.0 °F 20.5 °F 21.2 °F 64% 30.05 in 10.0 mi WNW 18.4 mph 26.5 mph N/A   Overcast
5:15 AM 33.8 °F 24.3 °F 21.2 °F 60% 30.07 in 10.0 mi WNW 13.8 mph 24.2 mph N/A   Overcast
5:35 AM 33.8 °F 25.8 °F 21.2 °F 60% 30.07 in 10.0 mi NW 10.4 mph 24.2 mph N/A   Overcast
5:55 AM 32.0 °F 19.5 °F 21.2 °F 64% 30.09 in 10.0 mi NW 21.9 mph 29.9 mph N/A   Overcast
6:15 AM 32.0 °F 22.1 °F 21.2 °F 64% 30.09 in 10.0 mi NW 13.8 mph 31.1 mph N/A   Overcast
6:35 AM 32.0 °F 21.6 °F 21.2 °F 64% 30.10 in 10.0 mi NW 15.0 mph 24.2 mph N/A   Overcast
6:55 AM 33.8 °F 22.8 °F 21.2 °F 60% 30.11 in 10.0 mi NW 18.4 mph 24.2 mph N/A   Overcast
7:15 AM 33.8 °F 24.3 °F 23.0 °F 65% 30.12 in 10.0 mi NW 13.8 mph 27.6 mph N/A   Overcast
7:35 AM 33.8 °F 23.9 °F 23.0 °F 65% 30.13 in 10.0 mi NW 15.0 mph 26.5 mph N/A   Overcast
7:55 AM 33.8 °F 21.0 °F 23.0 °F 65% 30.15 in 10.0 mi NNW 25.3 mph 28.8 mph N/A   Overcast
8:15 AM 33.8 °F 22.8 °F 23.0 °F 65% 30.16 in 10.0 mi NNW 18.4 mph 25.3 mph N/A   Overcast
8:35 AM 33.8 °F 23.9 °F 23.0 °F 65% 30.16 in 10.0 mi NW 15.0 mph 25.3 mph N/A   Overcast
8:55 AM 33.8 °F 23.5 °F 24.8 °F 70% 30.16 in 10.0 mi NW 16.1 mph - N/A   Overcast
9:15 AM 33.8 °F 24.3 °F 24.8 °F 70% 30.17 in 10.0 mi NNW 13.8 mph 25.3 mph N/A   Overcast
9:35 AM 33.8 °F 23.5 °F 24.8 °F 70% 30.17 in 10.0 mi NW 16.1 mph 24.2 mph N/A   Overcast
9:55 AM 35.6 °F 26.2 °F 24.8 °F 65% 30.17 in 10.0 mi NW 15.0 mph 27.6 mph N/A   Overcast
10:15 AM 35.6 °F 26.6 °F 24.8 °F 65% 30.18 in 10.0 mi NNW 13.8 mph 28.8 mph N/A   Overcast
10:35 AM 35.6 °F 27.1 °F 24.8 °F 65% 30.19 in 10.0 mi NNW 12.7 mph - N/A   Overcast
10:55 AM 35.6 °F 24.5 °F 24.8 °F 65% 30.19 in 10.0 mi NNW 20.7 mph 24.2 mph N/A   Overcast
11:15 AM 35.6 °F 25.2 °F 24.8 °F 65% 30.19 in 10.0 mi NW 18.4 mph 26.5 mph N/A   Overcast
11:35 AM 37.4 °F 27.5 °F 26.6 °F 65% 30.19 in 10.0 mi NNW 18.4 mph 26.5 mph N/A   Overcast
11:55 AM 37.4 °F 28.5 °F 26.6 °F 65% 30.19 in 10.0 mi NNW 15.0 mph 21.9 mph N/A   Overcast
12:15 PM 37.4 °F 29.3 °F 26.6 °F 65% 30.19 in 10.0 mi NNW 12.7 mph 21.9 mph N/A   Overcast
12:55 PM 37.4 °F 29.3 °F 26.6 °F 65% 30.19 in 10.0 mi NNW 12.7 mph 21.9 mph N/A   Overcast
1:15 PM 37.4 °F 29.3 °F 26.6 °F 65% 30.18 in 10.0 mi NNW 12.7 mph 18.4 mph N/A   Overcast
1:35 PM 39.2 °F 32.5 °F 26.6 °F 61% 30.18 in 10.0 mi NW 10.4 mph - N/A   Overcast
1:55 PM 41.0 °F 33.5 °F 26.6 °F 57% 30.18 in 10.0 mi NW 13.8 mph - N/A   Overcast
2:15 PM 41.0 °F 33.1 °F 28.4 °F 61% 30.19 in 10.0 mi NW 15.0 mph 18.4 mph N/A   Overcast
2:35 PM 41.0 °F 33.9 °F 28.4 °F 61% 30.19 in 10.0 mi NNW 12.7 mph 16.1 mph N/A   Overcast
2:55 PM 41.0 °F 34.3 °F 28.4 °F 61% 30.19 in 10.0 mi NNW 11.5 mph 18.4 mph N/A   Overcast
3:15 PM 41.0 °F 33.5 °F 28.4 °F 61% 30.19 in 10.0 mi NW 13.8 mph 18.4 mph N/A   Overcast
3:35 PM 41.0 °F 35.8 °F 28.4 °F 61% 30.19 in 10.0 mi NW 8.1 mph 16.1 mph N/A   Overcast
3:55 PM 41.0 °F 35.8 °F 28.4 °F 61% 30.19 in 10.0 mi NW 8.1 mph 16.1 mph N/A   Overcast
4:15 PM 41.0 °F 35.2 °F 28.4 °F 61% 30.20 in 10.0 mi NNW 9.2 mph - N/A   Overcast
4:35 PM 41.0 °F 33.5 °F 28.4 °F 61% 30.20 in 10.0 mi NW 13.8 mph 18.4 mph N/A   Overcast
4:55 PM 41.0 °F 34.3 °F 28.4 °F 61% 30.20 in 10.0 mi NNW 11.5 mph 17.3 mph N/A   Overcast
5:15 PM 41.0 °F 34.7 °F 30.2 °F 65% 30.20 in 10.0 mi NNW 10.4 mph - N/A   Overcast
5:35 PM 41.0 °F 35.2 °F 28.4 °F 61% 30.20 in 10.0 mi NNW 9.2 mph - N/A   Overcast
5:55 PM 39.2 °F 31.6 °F 28.4 °F 65% 30.21 in 10.0 mi NNW 12.7 mph - N/A   Mostly Cloudy
6:15 PM 39.2 °F 32.0 °F 28.4 °F 65% 30.21 in 10.0 mi NNW 11.5 mph - N/A   Scattered Clouds
6:35 PM 37.4 °F 29.8 °F 28.4 °F 70% 30.21 in 10.0 mi NNW 11.5 mph 18.4 mph N/A   Clear
6:55 PM 37.4 °F 30.8 °F 28.4 °F 70% 30.21 in 10.0 mi NNW 9.2 mph 17.3 mph N/A   Clear
7:15 PM 37.4 °F 29.3 °F 28.4 °F 70% 30.20 in 10.0 mi NNW 12.7 mph 16.1 mph N/A   Clear
7:35 PM 37.4 °F 29.3 °F 28.4 °F 70% 30.20 in 10.0 mi NNW 12.7 mph - N/A   Clear
7:55 PM 35.6 °F 27.5 °F 28.4 °F 75% 30.21 in 10.0 mi North 11.5 mph - N/A   Clear
8:15 PM 35.6 °F 27.5 °F 28.4 °F 75% 30.21 in 10.0 mi North 11.5 mph - N/A   Clear
8:35 PM 35.6 °F 29.2 °F 28.4 °F 75% 30.22 in 10.0 mi North 8.1 mph - N/A   Clear
8:55 PM 33.8 °F 25.8 °F 28.4 °F 81% 30.20 in 10.0 mi NNE 10.4 mph - N/A   Clear
9:15 PM 33.8 °F 28.6 °F 28.4 °F 81% 30.23 in 10.0 mi North 5.8 mph - N/A   Clear
9:35 PM 33.8 °F 28.6 °F 28.4 °F 81% 30.22 in 10.0 mi NNE 5.8 mph - N/A   Clear
9:55 PM 33.8 °F 29.6 °F 26.6 °F 75% 30.23 in 10.0 mi NNE 4.6 mph - N/A   Clear
10:15 PM 33.8 °F 29.6 °F 26.6 °F 75% 30.23 in 10.0 mi NE 4.6 mph - N/A   Clear
10:35 PM 32.0 °F 26.4 °F 26.6 °F 80% 30.24 in 10.0 mi NNE 5.8 mph - N/A   Clear
10:55 PM 32.0 °F 26.4 °F 26.6 °F 80% 30.23 in 10.0 mi NNE 5.8 mph - N/A   Clear
11:15 PM 32.0 °F 27.5 °F 26.6 °F 80% 30.23 in 10.0 mi North 4.6 mph - N/A   Clear
11:35 PM 32.0 °F 27.5 °F 26.6 °F 80% 30.23 in 10.0 mi North 4.6 mph - N/A   Clear
11:55 PM 32.0 °F 25.6 °F 26.6 °F 80% 30.23 in 10.0 mi North 6.9 mph - N/A   Clear